^^
Station Historical Data
Daily Summary for February 7, 2017 Units:  Metric    English   Both
« Previous Day
Next Day »
Daily Weekly Monthly Yearly Custom
  High: Low: Average:
Temperature: -17.8 °C -26 °C -24.8 °C
Dew Point: -17.8 °C -26.9 °C -25.8 °C
Humidity: Humidity% 82% 87%
Wind Speed: 0km/h 0km/h 2.3km/h
Wind Gust: 0km/h - -
Wind- - ENE
Pressure: 0 hPa 35288.9 hPa -
Precipitation: 0 mm    
Historical Graphs
 
 
Tabular Data for February 7, 2017
Time Temperature Dew Point Pressure Wind Wind Speed Wind Gust Humidity Rainfall Rate (Hourly) solar Conditions
-17.8 °C -17.8 °C 0 hPa Calm     Humidity% 0 mm SoftwareType W/m2 Conditions
00:00 -24.8 °C -25.4 °C 35288.9 hPa ENE 4.3 km/h 11.9 km/h 90% 0 mm WeatherDisplay:10.37 W/m2 FEW
00:05 -24.8 °C -25.4 °C 35288.9 hPa NE 3.7 km/h 6 km/h 90% 0 mm WeatherDisplay:10.37 W/m2 FEW
00:10 -24.8 °C -25.4 °C 35288.9 hPa NE 1.3 km/h 9 km/h 90% 0 mm WeatherDisplay:10.37 W/m2 FEW
00:15 -24.8 °C -25.4 °C 35288.9 hPa Calm     90% 0 mm WeatherDisplay:10.37 W/m2 FEW
00:20 -24.8 °C -25.5 °C 35288.9 hPa NE 0.5 km/h 9 km/h 90% 0 mm WeatherDisplay:10.37 W/m2 FEW
00:25 -24.8 °C -25.7 °C 35288.9 hPa NE 4.7 km/h 9 km/h 89% 0 mm WeatherDisplay:10.37 W/m2 FEW
00:30 -24.9 °C -25.7 °C 35288.9 hPa North 2.6 km/h 9 km/h 89% 0 mm WeatherDisplay:10.37 W/m2 FEW
00:35 -24.9 °C -25.7 °C 35288.9 hPa Calm     89% 0 mm WeatherDisplay:10.37 W/m2 FEW
00:40 -25 °C -25.8 °C 35288.9 hPa NNE 1.3 km/h 7.7 km/h 89% 0 mm WeatherDisplay:10.37 W/m2 FEW
00:45 -25.1 °C -25.9 °C 35288.9 hPa Calm     89% 0 mm WeatherDisplay:10.37 W/m2 FEW
00:50 -25.1 °C -25.9 °C 35288.9 hPa ENE 5 km/h 9 km/h 89% 0 mm WeatherDisplay:10.37 W/m2 FEW
00:55 -25.2 °C -25.9 °C 35299.1 hPa NE 2.9 km/h 9 km/h 89% 0 mm WeatherDisplay:10.37 W/m2 FEW
01:00 -25.2 °C -26 °C 35299.1 hPa NE 3.9 km/h 5.1 km/h 89% 0 mm WeatherDisplay:10.37 W/m2 FEW
01:05 -25.2 °C -26 °C 35299.1 hPa ENE 2.6 km/h 9 km/h 89% 0 mm WeatherDisplay:10.37 W/m2 FEW
01:10 -25.2 °C -26 °C 35299.1 hPa NE 2.6 km/h 9 km/h 89% 0 mm WeatherDisplay:10.37 W/m2 FEW
01:15 -25.2 °C -26 °C 35299.1 hPa ENE 7.2 km/h 9 km/h 89% 0 mm WeatherDisplay:10.37 W/m2 FEW
01:20 -25.2 °C -26 °C 35299.1 hPa ENE 4.2 km/h 9 km/h 89% 0 mm WeatherDisplay:10.37 W/m2 FEW
01:25 -25.2 °C -26 °C 35299.1 hPa ENE 2.3 km/h 9 km/h 89% 0 mm WeatherDisplay:10.37 W/m2 FEW
01:30 -25.2 °C -26 °C 35312.6 hPa NE 3.7 km/h 7.7 km/h 89% 0 mm WeatherDisplay:10.37 W/m2 FEW
01:35 -25.2 °C -26 °C 35312.6 hPa Calm     89% 0 mm WeatherDisplay:10.37 W/m2 FEW
01:40 -25.2 °C -26 °C 35312.6 hPa ENE 1.6 km/h 9 km/h 89% 0 mm WeatherDisplay:10.37 W/m2 FEW
01:45 -25.2 °C -25.9 °C 35312.6 hPa ENE 6.9 km/h 17.9 km/h 90% 0 mm WeatherDisplay:10.37 W/m2 FEW
01:50 -25.2 °C -25.9 °C 35312.6 hPa NE 6 km/h 9 km/h 89% 0 mm WeatherDisplay:10.37 W/m2 FEW
01:55 -25.2 °C -26 °C 35312.6 hPa East 4.2 km/h 9 km/h 89% 0 mm WeatherDisplay:10.37 W/m2 FEW
02:00 -25.2 °C -26 °C 35312.6 hPa Calm   6 km/h 89% 0 mm WeatherDisplay:10.37 W/m2 FEW
02:05 -25.2 °C -26 °C 35312.6 hPa ENE 3.1 km/h 6 km/h 89% 0 mm WeatherDisplay:10.37 W/m2 FEW
02:10 -25.2 °C -26 °C 35312.6 hPa ENE 1 km/h 9 km/h 89% 0 mm WeatherDisplay:10.37 W/m2 FEW
02:15 -25.2 °C -26.1 °C 35312.6 hPa ENE 6.3 km/h 9 km/h 89% 0 mm WeatherDisplay:10.37 W/m2 FEW
02:20 -25.2 °C -26.1 °C 35312.6 hPa NE 4.7 km/h 9 km/h 89% 0 mm WeatherDisplay:10.37 W/m2 FEW
02:25 -25.2 °C -26.1 °C 35312.6 hPa NE 2.6 km/h 3.1 km/h 89% 0 mm WeatherDisplay:10.37 W/m2 FEW
02:30 -25.3 °C -26.1 °C 35312.6 hPa Calm     89% 0 mm WeatherDisplay:10.37 W/m2 FEW
02:35 -25.3 °C -26.1 °C 35312.6 hPa ENE 0.3 km/h 9 km/h 89% 0 mm WeatherDisplay:10.37 W/m2 FEW
02:40 -25.3 °C -26.1 °C 35312.6 hPa Calm     89% 0 mm WeatherDisplay:10.37 W/m2 FEW
02:45 -25.3 °C -26.1 °C 35312.6 hPa NE 4.7 km/h 6 km/h 89% 0 mm WeatherDisplay:10.37 W/m2 FEW
02:50 -25.3 °C -26.1 °C 35312.6 hPa ENE 2.9 km/h 9 km/h 89% 0 mm WeatherDisplay:10.37 W/m2 FEW
02:55 -25.3 °C -26.1 °C 35312.6 hPa ENE 0.5 km/h 5.1 km/h 89% 0 mm WeatherDisplay:10.37 W/m2 FEW
03:00 -25.3 °C -26.2 °C 35312.6 hPa Calm     89% 0 mm WeatherDisplay:10.37 W/m2 FEW
03:05 -25.3 °C -26.2 °C 35312.6 hPa ESE 2.6 km/h 9 km/h 89% 0 mm WeatherDisplay:10.37 W/m2 FEW
03:10 -25.4 °C -26.2 °C 35312.6 hPa ENE 1.8 km/h 9 km/h 89% 0 mm WeatherDisplay:10.37 W/m2 FEW
03:15 -25.4 °C -26.2 °C 35312.6 hPa ENE 0.5 km/h 6 km/h 89% 0 mm WeatherDisplay:10.37 W/m2 FEW
03:20 -25.4 °C -26.2 °C 35312.6 hPa Calm   6 km/h 89% 0 mm WeatherDisplay:10.37 W/m2 FEW
03:25 -25.4 °C -26.2 °C 35322.8 hPa NE 1.3 km/h 6 km/h 89% 0 mm WeatherDisplay:10.37 W/m2 FEW
03:30 -25.4 °C -26.2 °C 35312.6 hPa NE 1.8 km/h 6 km/h 89% 0 mm WeatherDisplay:10.37 W/m2 FEW
03:35 -25.4 °C -26.2 °C 35322.8 hPa ENE 2.9 km/h 9 km/h 89% 0 mm WeatherDisplay:10.37 W/m2 FEW
03:40 -25.4 °C -26.2 °C 35322.8 hPa NE 1.6 km/h 9 km/h 89% 0 mm WeatherDisplay:10.37 W/m2 FEW
03:45 -25.4 °C -26.2 °C 35322.8 hPa ENE 0.5 km/h 9 km/h 89% 0 mm WeatherDisplay:10.37 W/m2 FEW
03:50 -25.4 °C -26.3 °C 35322.8 hPa ENE 2.6 km/h 6 km/h 89% 0 mm WeatherDisplay:10.37 W/m2 FEW
03:55 -25.4 °C -26.3 °C 35322.8 hPa ENE 2.9 km/h 9 km/h 89% 0 mm WeatherDisplay:10.37 W/m2 FEW
04:00 -25.5 °C -26.3 °C 35322.8 hPa ENE 2.3 km/h 9 km/h 89% 0 mm WeatherDisplay:10.37 W/m2 FEW
04:05 -25.5 °C -26.3 °C 35322.8 hPa East 2.6 km/h 6 km/h 89% 0 mm WeatherDisplay:10.37 W/m2 FEW
04:10 -25.6 °C -26.3 °C 35322.8 hPa ENE 3.7 km/h 11.9 km/h 89% 0 mm WeatherDisplay:10.37 W/m2 FEW
04:15 -25.6 °C -26.3 °C 35322.8 hPa ENE 4.7 km/h 9 km/h 89% 0 mm WeatherDisplay:10.37 W/m2 FEW
04:20 -25.6 °C -26.3 °C 35322.8 hPa ENE 3.9 km/h 9 km/h 89% 0 mm WeatherDisplay:10.37 W/m2 FEW
04:25 -25.6 °C -26.4 °C 35336.3 hPa ENE 0.3 km/h 9 km/h 89% 0 mm WeatherDisplay:10.37 W/m2 FEW
04:30 -25.6 °C -26.4 °C 35336.3 hPa ENE 3.9 km/h 9 km/h 89% 0 mm WeatherDisplay:10.37 W/m2 FEW
04:35 -25.6 °C -26.4 °C 35336.3 hPa Calm   3.1 km/h 89% 0 mm WeatherDisplay:10.37 W/m2 FEW
04:40 -25.6 °C -26.4 °C 35336.3 hPa ENE 2.1 km/h 6 km/h 89% 0 mm WeatherDisplay:10.37 W/m2 FEW
04:45 -25.7 °C -26.4 °C 35336.3 hPa ENE 0.8 km/h 3.1 km/h 89% 0 mm WeatherDisplay:10.37 W/m2 FEW
04:50 -25.7 °C -26.4 °C 35336.3 hPa Calm     89% 0 mm WeatherDisplay:10.37 W/m2 FEW
04:55 -25.7 °C -26.6 °C 35336.3 hPa ENE 0.5 km/h 6 km/h 88% 0 mm WeatherDisplay:10.37 W/m2 FEW
05:00 -25.7 °C -26.5 °C 35336.3 hPa ENE 0.8 km/h 7.7 km/h 89% 0 mm WeatherDisplay:10.37 W/m2 FEW
05:10 -25.8 °C -26.6 °C 35336.3 hPa ENE 0.5 km/h 5.1 km/h 89% 0 mm WeatherDisplay:10.37 W/m2 FEW
05:15 -25.8 °C -26.6 °C 35336.3 hPa ENE 2.9 km/h 2.9 km/h 89% 0 mm WeatherDisplay:10.37 W/m2 FEW
05:20 -25.8 °C -26.6 °C 35336.3 hPa Calm     89% 0 mm WeatherDisplay:10.37 W/m2 FEW
05:25 -25.8 °C -26.7 °C 35336.3 hPa Calm     88% 0 mm WeatherDisplay:10.37 W/m2 FEW
05:30 -25.9 °C -26.7 °C 35336.3 hPa Calm   6 km/h 88% 0 mm WeatherDisplay:10.37 W/m2 FEW
05:36 -25.9 °C -26.7 °C 35336.3 hPa Calm   3.1 km/h 88% 0 mm WeatherDisplay:10.37 W/m2 FEW
05:41 -25.9 °C -26.8 °C 35336.3 hPa Calm     88% 0 mm WeatherDisplay:10.37 W/m2 FEW
05:46 -25.9 °C -26.8 °C 35336.3 hPa ENE 0.8 km/h 6 km/h 88% 0 mm WeatherDisplay:10.37 W/m2 FEW
05:51 -25.9 °C -26.8 °C 35336.3 hPa Calm     88% 0 mm WeatherDisplay:10.37 W/m2 FEW
05:56 -25.9 °C -26.8 °C 35336.3 hPa Calm     88% 0 mm WeatherDisplay:10.37 W/m2 FEW
06:01 -25.9 °C -26.7 °C 35336.3 hPa Calm   3.1 km/h 89% 0 mm WeatherDisplay:10.37 W/m2 FEW
06:06 -25.9 °C -26.6 °C 35336.3 hPa ENE 1.6 km/h 9 km/h 89% 0 mm WeatherDisplay:10.37 W/m2 FEW
06:11 -25.9 °C -26.6 °C 35336.3 hPa East 0.5 km/h 3.1 km/h 89% 0 mm WeatherDisplay:10.37 W/m2 FEW
06:16 -25.9 °C -26.6 °C 35346.5 hPa Calm     89% 0 mm WeatherDisplay:10.37 W/m2 FEW
06:21 -25.9 °C -26.6 °C 35346.5 hPa Calm     89% 0 mm WeatherDisplay:10.37 W/m2 FEW
06:26 -25.8 °C -26.6 °C 35346.5 hPa Calm     89% 0 mm WeatherDisplay:10.37 W/m2 FEW
06:31 -25.8 °C -26.6 °C 35346.5 hPa Calm     89% 0 mm WeatherDisplay:10.37 W/m2 FEW
06:36 -25.8 °C -26.6 °C 35346.5 hPa ENE 3.1 km/h 6 km/h 89% 0 mm WeatherDisplay:10.37 W/m2 FEW
06:41 -25.8 °C -26.6 °C 35346.5 hPa Calm     89% 0 mm WeatherDisplay:10.37 W/m2 FEW
06:46 -25.8 °C -26.6 °C 35346.5 hPa ENE 3.4 km/h 9 km/h 89% 0 mm WeatherDisplay:10.37 W/m2 FEW
06:51 -25.8 °C -26.6 °C 35346.5 hPa Calm   6 km/h 89% 0 mm WeatherDisplay:10.37 W/m2 FEW
06:56 -25.8 °C -26.6 °C 35346.5 hPa ENE 1.3 km/h 6 km/h 89% 0 mm WeatherDisplay:10.37 W/m2 FEW
07:01 -25.9 °C -26.6 °C 35346.5 hPa ENE 1.3 km/h 6 km/h 89% 0 mm WeatherDisplay:10.37 W/m2 FEW
07:06 -25.9 °C -26.6 °C 35346.5 hPa ENE 1 km/h 5.1 km/h 89% 0 mm WeatherDisplay:10.37 W/m2 FEW
07:11 -25.9 °C -26.7 °C 35346.5 hPa Calm   3.1 km/h 89% 0 mm WeatherDisplay:10.37 W/m2 FEW
07:16 -25.9 °C -26.7 °C 35346.5 hPa Calm     89% 0 mm WeatherDisplay:10.37 W/m2 FEW
07:21 -25.9 °C -26.7 °C 35346.5 hPa ENE 0.8 km/h 6 km/h 89% 0 mm WeatherDisplay:10.37 W/m2 FEW
07:26 -25.9 °C -26.7 °C 35346.5 hPa ENE 0.8 km/h 3.1 km/h 89% 0 mm WeatherDisplay:10.37 W/m2 FEW
07:31 -25.9 °C -26.7 °C 35346.5 hPa ENE 0.5 km/h 6 km/h 89% 0 mm WeatherDisplay:10.37 W/m2 FEW
07:36 -25.9 °C -26.7 °C 35346.5 hPa Calm   2.6 km/h 89% 0 mm WeatherDisplay:10.37 W/m2 FEW
07:41 -25.9 °C -26.7 °C 35346.5 hPa ENE 3.1 km/h 6 km/h 89% 0 mm WeatherDisplay:10.37 W/m2 FEW
07:46 -25.9 °C -26.7 °C 35346.5 hPa Calm     89% 0 mm WeatherDisplay:10.37 W/m2 FEW
07:51 -25.9 °C -26.7 °C 35346.5 hPa ENE 4.3 km/h 9 km/h 89% 0 mm WeatherDisplay:10.37 W/m2 FEW
07:56 -26 °C -26.8 °C 35346.5 hPa ENE 1 km/h 6 km/h 89% 0 mm WeatherDisplay:10.37 W/m2 FEW
08:01 -25.9 °C -26.7 °C 35346.5 hPa Calm     89% 0 mm WeatherDisplay:10.37 W/m2 FEW
08:06 -25.9 °C -26.7 °C 35356.6 hPa ENE 3.4 km/h 6 km/h 89% 0 mm WeatherDisplay:10.37 W/m2 FEW
08:11 -25.9 °C -26.7 °C 35356.6 hPa ENE 1.6 km/h 6 km/h 89% 0 mm WeatherDisplay:10.37 W/m2 FEW
08:16 -25.9 °C -26.7 °C 35356.6 hPa ENE 1 km/h 6 km/h 89% 0 mm WeatherDisplay:10.37 W/m2 FEW
08:21 -25.9 °C -26.7 °C 35356.6 hPa Calm     89% 0 mm WeatherDisplay:10.37 W/m2 FEW
08:26 -25.9 °C -26.7 °C 35356.6 hPa Calm     89% 0 mm WeatherDisplay:10.37 W/m2 FEW
08:31 -25.9 °C -26.7 °C 35356.6 hPa ENE 1.6 km/h 6 km/h 89% 0 mm WeatherDisplay:10.37 W/m2 FEW
08:36 -25.9 °C -26.7 °C 35370.2 hPa ENE 1.8 km/h 6 km/h 89% 0 mm WeatherDisplay:10.37 W/m2 FEW
08:41 -26 °C -26.8 °C 35370.2 hPa ENE 2.6 km/h 2.6 km/h 89% 0 mm WeatherDisplay:10.37 W/m2 FEW
08:46 -26 °C -26.8 °C 35370.2 hPa Calm     89% 0 mm WeatherDisplay:10.37 W/m2 FEW
08:51 -26 °C -26.8 °C 35370.2 hPa ENE 1.8 km/h 6 km/h 89% 0 mm WeatherDisplay:10.37 W/m2 FEW
08:56 -26 °C -26.8 °C 35370.2 hPa Calm     89% 0 mm WeatherDisplay:10.37 W/m2 FEW
09:01 -26 °C -26.8 °C 35370.2 hPa ENE 1 km/h 3.1 km/h 89% 0 mm WeatherDisplay:10.37 W/m2 FEW
09:06 -26 °C -26.8 °C 35370.2 hPa Calm   6 km/h 89% 0 mm WeatherDisplay:10.37 W/m2 FEW
09:11 -26 °C -26.8 °C 35370.2 hPa Calm     89% 0 mm WeatherDisplay:10.37 W/m2 FEW
09:16 -25.9 °C -26.8 °C 35370.2 hPa ENE 1.8 km/h 6 km/h 88% 0 mm WeatherDisplay:10.37 W/m2 FEW
09:21 -25.9 °C -26.7 °C 35380.3 hPa ENE 0.5 km/h 2.6 km/h 89% 0 mm WeatherDisplay:10.37 W/m2 FEW
09:26 -25.9 °C -26.7 °C 35380.3 hPa ENE 1.6 km/h 9 km/h 89% 0 mm WeatherDisplay:10.37 W/m2 FEW
09:31 -25.9 °C -26.6 °C 35380.3 hPa Calm   6 km/h 89% 0 mm WeatherDisplay:10.37 W/m2 FEW
09:36 -25.8 °C -26.6 °C 35380.3 hPa NE 3.1 km/h 9 km/h 89% 0 mm WeatherDisplay:10.37 W/m2 FEW
09:41 -25.7 °C -26.5 °C 35380.3 hPa ENE 1.6 km/h   89% 0 mm WeatherDisplay:10.37 W/m2 FEW
09:46 -25.7 °C -26.5 °C 35380.3 hPa ENE 3.7 km/h 9 km/h 89% 0 mm WeatherDisplay:10.37 W/m2 FEW
09:51 -25.7 °C -26.4 °C 35380.3 hPa NE 3.4 km/h 9 km/h 89% 0 mm WeatherDisplay:10.37 W/m2 FEW
09:56 -25.6 °C -26.4 °C 35380.3 hPa ENE 5.5 km/h 9 km/h 89% 0 mm WeatherDisplay:10.37 W/m2 FEW
10:01 -25.6 °C -26.3 °C 35380.3 hPa ENE 0.3 km/h 3.1 km/h 89% 0 mm WeatherDisplay:10.37 W/m2 FEW
10:06 -25.5 °C -26.3 °C 35393.9 hPa NE 4.7 km/h 6 km/h 89% 0 mm WeatherDisplay:10.37 W/m2 FEW
10:11 -25.4 °C -26.2 °C 35393.9 hPa ENE 0.8 km/h 2.6 km/h 89% 0 mm WeatherDisplay:10.37 W/m2 FEW
10:16 -25.3 °C -26.2 °C 35393.9 hPa ENE 1.6 km/h 2.6 km/h 89% 0 mm WeatherDisplay:10.37 W/m2 FEW
10:21 -25.2 °C -26.1 °C 35393.9 hPa ENE 5.1 km/h 9 km/h 89% 0 mm WeatherDisplay:10.37 W/m2 FEW
10:26 -25.2 °C -25.9 °C 35393.9 hPa ENE 2.6 km/h 6 km/h 90% 0 mm WeatherDisplay:10.37 W/m2 FEW
10:31 -25.1 °C -25.8 °C 35393.9 hPa ENE 2.9 km/h 9 km/h 90% 0 mm WeatherDisplay:10.37 W/m2 FEW
10:36 -25.1 °C -25.7 °C 35393.9 hPa ENE 5.1 km/h 10.3 km/h 90% 0 mm WeatherDisplay:10.37 W/m2 FEW
10:41 -24.9 °C -25.7 °C 35393.9 hPa NE 6.3 km/h 9 km/h 90% 0 mm WeatherDisplay:10.37 W/m2 FEW
10:46 -24.8 °C -25.6 °C 35393.9 hPa NE 4.3 km/h 9 km/h 90% 0 mm WeatherDisplay:10.37 W/m2 FEW
10:51 -24.8 °C -25.5 °C 35393.9 hPa ENE 5.6 km/h 9 km/h 90% 0 mm WeatherDisplay:10.37 W/m2 FEW
10:56 -24.7 °C -25.4 °C 35393.9 hPa ENE 3.7 km/h 7.7 km/h 90% 0 mm WeatherDisplay:10.37 W/m2 FEW
11:01 -24.6 °C -25.3 °C 35393.9 hPa ENE 7.2 km/h 11.9 km/h 90% 0 mm WeatherDisplay:10.37 W/m2 FEW
11:06 -24.6 °C -25.2 °C 35393.9 hPa NE 7.2 km/h 9 km/h 90% 0 mm WeatherDisplay:10.37 W/m2 FEW
11:11 -24.5 °C -25.2 °C 35393.9 hPa NE 3.4 km/h 9 km/h 90% 0 mm WeatherDisplay:10.37 W/m2 FEW
11:16 -24.4 °C -25.2 °C 35404 hPa East 4.2 km/h 9 km/h 89% 0 mm WeatherDisplay:10.37 W/m2 FEW
11:21 -24.3 °C -25.1 °C 35404 hPa NE 4.7 km/h 11.9 km/h 90% 0 mm WeatherDisplay:10.37 W/m2 FEW
11:26 -24.3 °C -25 °C 35404 hPa NE 3.4 km/h 9 km/h 90% 0 mm WeatherDisplay:10.37 W/m2 FEW
11:31 -24.1 °C -24.9 °C 35404 hPa ENE 6.3 km/h 9 km/h 90% 0 mm WeatherDisplay:10.37 W/m2 FEW
11:36 -24.1 °C -24.8 °C 35404 hPa ENE 11.6 km/h 17.9 km/h 90% 0 mm WeatherDisplay:10.37 W/m2 FEW
11:41 -23.9 °C -24.7 °C 35404 hPa NE 4.7 km/h 15 km/h 90% 0 mm WeatherDisplay:10.37 W/m2 FEW
11:46 -23.8 °C -24.7 °C 35404 hPa ENE 8.9 km/h 11.9 km/h 89% 0 mm WeatherDisplay:10.37 W/m2 FEW
11:51 -23.8 °C -24.6 °C 35404 hPa NE 10.6 km/h 15 km/h 89% 0 mm WeatherDisplay:10.37 W/m2 FEW
11:56 -23.7 °C -24.5 °C 35404 hPa ENE 5.5 km/h 11.9 km/h 89% 0 mm WeatherDisplay:10.37 W/m2 FEW
12:01 -23.6 °C -24.4 °C 35404 hPa ENE 11.1 km/h 15 km/h 89% 0 mm WeatherDisplay:10.37 W/m2 FEW
12:06 -23.5 °C -24.3 °C 35404 hPa ENE 5 km/h 9 km/h 89% 0 mm WeatherDisplay:10.37 W/m2 FEW
12:11 -23.4 °C -24.3 °C 35404 hPa NE 2.1 km/h 11.9 km/h 88% 0 mm WeatherDisplay:10.37 W/m2 FEW
12:16 -23.4 °C -24.3 °C 35404 hPa East 3.4 km/h 9 km/h 88% 0 mm WeatherDisplay:10.37 W/m2 FEW
12:21 -23.4 °C -24.4 °C 35404 hPa ENE 2.9 km/h 11.9 km/h 87% 0 mm WeatherDisplay:10.37 W/m2 FEW
12:26 -23.4 °C -24.3 °C 35404 hPa East 5.6 km/h 9 km/h 87% 0 mm WeatherDisplay:10.37 W/m2 FEW
12:31 -23.4 °C -24.4 °C 35404 hPa ENE 7.6 km/h 15 km/h 87% 0 mm WeatherDisplay:10.37 W/m2 FEW
12:36 -23.4 °C -24.3 °C 35404 hPa NNE 15.8 km/h 23.8 km/h 87% 0 mm WeatherDisplay:10.37 W/m2 FEW
12:41 -23.3 °C -24.3 °C 35404 hPa East 4.2 km/h 15 km/h 87% 0 mm WeatherDisplay:10.37 W/m2 FEW
12:46 -23.3 °C -24.3 °C 35404 hPa NE 9.3 km/h 15 km/h 87% 0 mm WeatherDisplay:10.37 W/m2 FEW
12:51 -23.3 °C -24.3 °C 35404 hPa NE 8 km/h 9 km/h 87% 0 mm WeatherDisplay:10.37 W/m2 FEW
12:56 -23.3 °C -24.3 °C 35404 hPa ENE 5.5 km/h 11.9 km/h 87% 0 mm WeatherDisplay:10.37 W/m2 FEW
13:01 -23.3 °C -24.3 °C 35404 hPa East 4.3 km/h 9 km/h 87% 0 mm WeatherDisplay:10.37 W/m2 FEW
13:06 -23.2 °C -24.2 °C 35404 hPa NE 12.7 km/h 26.9 km/h 87% 0 mm WeatherDisplay:10.37 W/m2 FEW
13:11 -23.2 °C -24.2 °C 35404 hPa NE 1.8 km/h 9 km/h 86% 0 mm WeatherDisplay:10.37 W/m2 FEW
13:16 -23.2 °C -24.2 °C 35414.2 hPa NE 9.3 km/h 9.3 km/h 86% 0 mm WeatherDisplay:10.37 W/m2 FEW
13:21 -23.2 °C -24.3 °C 35414.2 hPa ENE 2.6 km/h 11.9 km/h 86% 0 mm WeatherDisplay:10.37 W/m2 FEW
13:26 -23.2 °C -24.3 °C 35414.2 hPa NE 0.8 km/h 9 km/h 86% 0 mm WeatherDisplay:10.37 W/m2 FEW
13:31 -23.2 °C -24.2 °C 35414.2 hPa East 4.3 km/h 15 km/h 86% 0 mm WeatherDisplay:10.37 W/m2 FEW
13:36 -23.2 °C -24.2 °C 35414.2 hPa ENE 9.3 km/h 15 km/h 86% 0 mm WeatherDisplay:10.37 W/m2 FEW
13:41 -23.1 °C -24.2 °C 35414.2 hPa SE 3.4 km/h 7.7 km/h 86% 0 mm WeatherDisplay:10.37 W/m2 FEW
13:46 -23.1 °C -24.1 °C 35414.2 hPa NE 1.8 km/h 9 km/h 86% 0 mm WeatherDisplay:10.37 W/m2 FEW
13:51 -23.1 °C -24.1 °C 35414.2 hPa East 10.3 km/h 15 km/h 86% 0 mm WeatherDisplay:10.37 W/m2 FEW
13:56 -23.1 °C -24.1 °C 35414.2 hPa NE 7.6 km/h 9 km/h 86% 0 mm WeatherDisplay:10.37 W/m2 FEW
14:01 -23 °C -24.1 °C 35414.2 hPa ENE 1.8 km/h 9 km/h 86% 0 mm WeatherDisplay:10.37 W/m2 FEW
14:06 -23 °C -24.1 °C 35414.2 hPa East 6.8 km/h 9 km/h 86% 0 mm WeatherDisplay:10.37 W/m2 FEW
14:11 -22.9 °C -24 °C 35414.2 hPa ENE 8.2 km/h 15 km/h 86% 0 mm WeatherDisplay:10.37 W/m2 FEW
14:16 -22.9 °C -24 °C 35414.2 hPa NNE 3.9 km/h 6 km/h 86% 0 mm WeatherDisplay:10.37 W/m2 FEW
14:21 -22.9 °C -24.1 °C 35414.2 hPa NE 6.3 km/h 9 km/h 85% 0 mm WeatherDisplay:10.37 W/m2 FEW
14:26 -22.9 °C -24.1 °C 35414.2 hPa East 8.9 km/h 11.9 km/h 85% 0 mm WeatherDisplay:10.37 W/m2 FEW
14:31 -22.9 °C -24.1 °C 35414.2 hPa NE 6.8 km/h 9 km/h 85% 0 mm WeatherDisplay:10.37 W/m2 FEW
14:35 -22.9 °C -24 °C 35414.2 hPa ENE 6.9 km/h 11.9 km/h 85% 0 mm WeatherDisplay:10.37 W/m2 FEW
14:40 -22.9 °C -24 °C 35414.2 hPa NE 4.2 km/h 11.9 km/h 85% 0 mm WeatherDisplay:10.37 W/m2 FEW
14:45 -22.9 °C -24 °C 35414.2 hPa East 6.3 km/h 10.3 km/h 85% 0 mm WeatherDisplay:10.37 W/m2 FEW
14:50 -22.8 °C -24 °C 35414.2 hPa ENE 5.1 km/h 9 km/h 85% 0 mm WeatherDisplay:10.37 W/m2 FEW
14:55 -22.8 °C -24 °C 35414.2 hPa Calm   6 km/h 85% 0 mm WeatherDisplay:10.37 W/m2 FEW
15:00 -22.8 °C -24 °C 35414.2 hPa NE 6.3 km/h 9 km/h 85% 0 mm WeatherDisplay:10.37 W/m2 FEW
15:05 -22.9 °C -24 °C 35427.7 hPa NE 2.1 km/h 9 km/h 85% 0 mm WeatherDisplay:10.37 W/m2 FEW
15:10 -22.9 °C -24 °C 35414.2 hPa NE 5.1 km/h 11.9 km/h 85% 0 mm WeatherDisplay:10.37 W/m2 FEW
15:15 -22.9 °C -24 °C 35414.2 hPa NE 1.3 km/h 6 km/h 85% 0 mm WeatherDisplay:10.37 W/m2 FEW
15:20 -22.9 °C -24.1 °C 35414.2 hPa ENE 2.1 km/h 6 km/h 85% 0 mm WeatherDisplay:10.37 W/m2 FEW
15:26 -22.9 °C -24.1 °C 35414.2 hPa NE 4.7 km/h 9 km/h 85% 0 mm WeatherDisplay:10.37 W/m2 FEW
15:31 -22.9 °C -24.1 °C 35414.2 hPa Calm     85% 0 mm WeatherDisplay:10.37 W/m2 FEW
15:36 -22.9 °C -24.1 °C 35414.2 hPa ENE 0.8 km/h 6 km/h 85% 0 mm WeatherDisplay:10.37 W/m2 FEW
15:41 -22.9 °C -24.1 °C 35427.7 hPa ENE 1.3 km/h 9 km/h 85% 0 mm WeatherDisplay:10.37 W/m2 FEW
15:46 -22.9 °C -24.1 °C 35427.7 hPa ENE 6.3 km/h 9 km/h 85% 0 mm WeatherDisplay:10.37 W/m2 FEW
15:51 -23 °C -24.1 °C 35427.7 hPa NE 4.2 km/h 9 km/h 85% 0 mm WeatherDisplay:10.37 W/m2 FEW
15:56 -23 °C -24.2 °C 35427.7 hPa Calm   3.1 km/h 85% 0 mm WeatherDisplay:10.37 W/m2 FEW
16:01 -23.1 °C -24.2 °C 35427.7 hPa NE 3.7 km/h 9 km/h 85% 0 mm WeatherDisplay:10.37 W/m2 FEW
16:06 -23.1 °C -24.2 °C 35427.7 hPa ENE 4.3 km/h 9 km/h 85% 0 mm WeatherDisplay:10.37 W/m2 FEW
16:11 -23.2 °C -24.3 °C 35427.7 hPa NE 4.7 km/h 9 km/h 85% 0 mm WeatherDisplay:10.37 W/m2 FEW
16:16 -23.2 °C -24.2 °C 35427.7 hPa ENE 3.9 km/h 7.7 km/h 86% 0 mm WeatherDisplay:10.37 W/m2 FEW
16:21 -23.2 °C -24.3 °C 35427.7 hPa NE 6 km/h 9 km/h 86% 0 mm WeatherDisplay:10.37 W/m2 FEW
16:26 -23.3 °C -24.3 °C 35427.7 hPa ENE 5 km/h 11.9 km/h 86% 0 mm WeatherDisplay:10.37 W/m2 FEW
16:31 -23.3 °C -24.3 °C 35427.7 hPa NE 4.3 km/h 9 km/h 86% 0 mm WeatherDisplay:10.37 W/m2 FEW
16:36 -23.4 °C -24.4 °C 35427.7 hPa Calm   6 km/h 86% 0 mm WeatherDisplay:10.37 W/m2 FEW
16:41 -23.4 °C -24.5 °C 35427.7 hPa ENE 5.1 km/h 9 km/h 86% 0 mm WeatherDisplay:10.37 W/m2 FEW
16:46 -23.4 °C -24.5 °C 35427.7 hPa ENE 1 km/h 7.7 km/h 86% 0 mm WeatherDisplay:10.37 W/m2 FEW
16:51 -23.5 °C -24.6 °C 35427.7 hPa NE 0.3 km/h 2.6 km/h 86% 0 mm WeatherDisplay:10.37 W/m2 FEW
16:56 -23.6 °C -24.6 °C 35427.7 hPa East 7.6 km/h 11.9 km/h 87% 0 mm WeatherDisplay:10.37 W/m2 FEW
17:01 -23.7 °C -24.6 °C 35427.7 hPa NE 5.6 km/h 9 km/h 87% 0 mm WeatherDisplay:10.37 W/m2 FEW
17:06 -23.7 °C -24.6 °C 35437.9 hPa NE 3.7 km/h 9 km/h 87% 0 mm WeatherDisplay:10.37 W/m2 FEW
17:11 -23.7 °C -24.7 °C 35437.9 hPa ENE 0.5 km/h 9 km/h 87% 0 mm WeatherDisplay:10.37 W/m2 FEW
17:16 -23.8 °C -24.7 °C 35437.9 hPa NE 0.8 km/h 3.1 km/h 87% 0 mm WeatherDisplay:10.37 W/m2 FEW
17:21 -23.8 °C -24.8 °C 35437.9 hPa NE 1.6 km/h 9 km/h 87% 0 mm WeatherDisplay:10.37 W/m2 FEW
17:26 -23.8 °C -24.8 °C 35437.9 hPa ENE 1 km/h 5.1 km/h 87% 0 mm WeatherDisplay:10.37 W/m2 FEW
17:31 -23.9 °C -24.8 °C 35427.7 hPa ENE 3.1 km/h 7.7 km/h 87% 0 mm WeatherDisplay:10.37 W/m2 FEW
17:36 -23.9 °C -24.8 °C 35437.9 hPa ENE 1.3 km/h 7.7 km/h 88% 0 mm WeatherDisplay:10.37 W/m2 FEW
17:41 -24 °C -24.9 °C 35437.9 hPa NE 2.1 km/h 2.6 km/h 88% 0 mm WeatherDisplay:10.37 W/m2 FEW
17:46 -24 °C -24.9 °C 35437.9 hPa Calm     88% 0 mm WeatherDisplay:10.37 W/m2 FEW
17:51 -24.1 °C -25 °C 35437.9 hPa NE 3.9 km/h 9 km/h 88% 0 mm WeatherDisplay:10.37 W/m2 FEW
17:56 -24.2 °C -25.1 °C 35437.9 hPa NE 3.9 km/h 9 km/h 88% 0 mm WeatherDisplay:10.37 W/m2 FEW
18:01 -24.2 °C -25.1 °C 35437.9 hPa NE 2.9 km/h 9 km/h 88% 0 mm WeatherDisplay:10.37 W/m2 FEW
18:06 -24.2 °C -25.1 °C 35437.9 hPa Calm     88% 0 mm WeatherDisplay:10.37 W/m2 FEW
18:11 -24.3 °C -25.2 °C 35437.9 hPa Calm   9 km/h 88% 0 mm WeatherDisplay:10.37 W/m2 FEW
18:16 -24.3 °C -25.2 °C 35437.9 hPa NE 1.3 km/h 9 km/h 88% 0 mm WeatherDisplay:10.37 W/m2 FEW
18:21 -24.3 °C -25.3 °C 35437.9 hPa Calm     87% 0 mm WeatherDisplay:10.37 W/m2 FEW
18:26 -24.4 °C -25.3 °C 35437.9 hPa Calm     87% 0 mm WeatherDisplay:10.37 W/m2 FEW
18:31 -24.4 °C -25.4 °C 35451.4 hPa NE 0.8 km/h 2.6 km/h 87% 0 mm WeatherDisplay:10.37 W/m2 FEW
18:36 -24.5 °C -25.5 °C 35451.4 hPa Calm     86% 0 mm WeatherDisplay:10.37 W/m2 FEW
18:41 -24.6 °C -25.6 °C 35451.4 hPa NE 1.6 km/h 3.1 km/h 86% 0 mm WeatherDisplay:10.37 W/m2 FEW
18:42 -24.6 °C -25.6 °C 35451.4 hPa NE 2.1 km/h 6 km/h 86% 0 mm WeatherDisplay:10.37 W/m2 FEW
18:47 -24.6 °C -25.6 °C 35451.4 hPa Calm   3.1 km/h 86% 0 mm WeatherDisplay:10.37 W/m2 FEW
18:52 -24.6 °C -25.7 °C 35451.4 hPa Calm   6 km/h 85% 0 mm WeatherDisplay:10.37 W/m2 FEW
18:57 -24.6 °C -25.7 °C 35451.4 hPa Calm     85% 0 mm WeatherDisplay:10.37 W/m2 FEW
19:02 -24.6 °C -25.7 °C 35451.4 hPa Calm     85% 0 mm WeatherDisplay:10.37 W/m2 FEW
19:07 -24.6 °C -25.8 °C 35451.4 hPa Calm     84% 0 mm WeatherDisplay:10.37 W/m2 FEW
19:12 -24.7 °C -25.9 °C 35451.4 hPa Calm     84% 0 mm WeatherDisplay:10.37 W/m2 FEW
19:17 -24.8 °C -26 °C 35451.4 hPa Calm     84% 0 mm WeatherDisplay:10.37 W/m2 FEW
19:22 -24.8 °C -26.1 °C 35451.4 hPa Calm     84% 0 mm WeatherDisplay:10.37 W/m2 FEW
19:27 -24.9 °C -26.1 °C 35451.4 hPa Calm     84% 0 mm WeatherDisplay:10.37 W/m2 FEW
19:28 -24.9 °C -26.1 °C 35451.4 hPa Calm     84% 0 mm WeatherDisplay:10.37 W/m2 FEW
19:33 -25 °C -26.3 °C 35451.4 hPa Calm     83% 0 mm WeatherDisplay:10.37 W/m2 FEW
19:38 -25.1 °C -26.3 °C 35451.4 hPa Calm     83% 0 mm WeatherDisplay:10.37 W/m2 FEW
19:43 -25.1 °C -26.3 °C 35451.4 hPa Calm     83% 0 mm WeatherDisplay:10.37 W/m2 FEW
19:48 -25.1 °C -26.3 °C 35451.4 hPa Calm     83% 0 mm WeatherDisplay:10.37 W/m2 FEW
19:53 -25.1 °C -26.4 °C 35451.4 hPa Calm     83% 0 mm WeatherDisplay:10.37 W/m2 FEW
19:58 -25.2 °C -26.4 °C 35451.4 hPa Calm     83% 0 mm WeatherDisplay:10.37 W/m2 FEW
20:03 -25.2 °C -26.4 °C 35451.4 hPa Calm     83% 0 mm WeatherDisplay:10.37 W/m2 FEW
20:08 -25.2 °C -26.4 °C 35451.4 hPa Calm     83% 0 mm WeatherDisplay:10.37 W/m2 FEW
20:13 -25.2 °C -26.4 °C 35451.4 hPa Calm   3.1 km/h 83% 0 mm WeatherDisplay:10.37 W/m2 FEW
20:18 -25.2 °C -26.6 °C 35451.4 hPa Calm     82% 0 mm WeatherDisplay:10.37 W/m2 FEW
20:23 -25.2 °C -26.6 °C 35451.4 hPa Calm     82% 0 mm WeatherDisplay:10.37 W/m2 FEW
20:28 -25.2 °C -26.6 °C 35461.6 hPa Calm     82% 0 mm WeatherDisplay:10.37 W/m2 FEW
20:33 -25.3 °C -26.6 °C 35461.6 hPa Calm     82% 0 mm WeatherDisplay:10.37 W/m2 FEW
20:38 -25.3 °C -26.6 °C 35461.6 hPa Calm     82% 0 mm WeatherDisplay:10.37 W/m2 FEW
20:43 -25.3 °C -26.6 °C 35461.6 hPa Calm     82% 0 mm WeatherDisplay:10.37 W/m2 FEW
20:48 -25.4 °C -26.7 °C 35461.6 hPa Calm     82% 0 mm WeatherDisplay:10.37 W/m2 FEW
20:53 -25.4 °C -26.7 °C 35451.4 hPa Calm     82% 0 mm WeatherDisplay:10.37 W/m2 FEW
20:58 -25.4 °C -26.8 °C 35451.4 hPa Calm     82% 0 mm WeatherDisplay:10.37 W/m2 FEW
21:03 -25.4 °C -26.8 °C 35451.4 hPa Calm     82% 0 mm WeatherDisplay:10.37 W/m2 FEW
21:08 -25.5 °C -26.8 °C 35461.6 hPa Calm     83% 0 mm WeatherDisplay:10.37 W/m2 FEW
21:13 -25.6 °C -26.8 °C 35451.4 hPa Calm     83% 0 mm WeatherDisplay:10.37 W/m2 FEW
21:18 -25.6 °C -26.8 °C 35451.4 hPa Calm     83% 0 mm WeatherDisplay:10.37 W/m2 FEW
21:23 -25.6 °C -26.8 °C 35451.4 hPa Calm     83% 0 mm WeatherDisplay:10.37 W/m2 FEW
21:28 -25.6 °C -26.8 °C 35461.6 hPa Calm     83% 0 mm WeatherDisplay:10.37 W/m2 FEW
21:33 -25.6 °C -26.9 °C 35461.6 hPa Calm     83% 0 mm WeatherDisplay:10.37 W/m2 FEW
21:38 -25.7 °C -26.8 °C 35461.6 hPa Calm     84% 0 mm WeatherDisplay:10.37 W/m2 FEW
21:43 -25.7 °C -26.8 °C 35461.6 hPa Calm   6 km/h 84% 0 mm WeatherDisplay:10.37 W/m2 FEW
21:48 -25.7 °C -26.8 °C 35461.6 hPa Calm     84% 0 mm WeatherDisplay:10.37 W/m2 FEW
21:53 -25.7 °C -26.8 °C 35461.6 hPa Calm     84% 0 mm WeatherDisplay:10.37 W/m2 FEW
21:58 -25.7 °C -26.8 °C 35461.6 hPa Calm     84% 0 mm WeatherDisplay:10.37 W/m2 FEW
22:03 -25.6 °C -26.8 °C 35461.6 hPa Calm     84% 0 mm WeatherDisplay:10.37 W/m2 FEW
22:08 -25.6 °C -26.8 °C 35461.6 hPa Calm     84% 0 mm WeatherDisplay:10.37 W/m2 FEW
22:13 -25.6 °C -26.8 °C 35461.6 hPa Calm     84% 0 mm WeatherDisplay:10.37 W/m2 FEW
22:18 -25.6 °C -26.8 °C 35461.6 hPa Calm     84% 0 mm WeatherDisplay:10.37 W/m2 FEW
22:23 -25.6 °C -26.8 °C 35471.7 hPa Calm     84% 0 mm WeatherDisplay:10.37 W/m2 FEW
22:28 -25.7 °C -26.8 °C 35461.6 hPa Calm     84% 0 mm WeatherDisplay:10.37 W/m2 FEW
22:33 -25.7 °C -26.7 °C 35471.7 hPa Calm     85% 0 mm WeatherDisplay:10.37 W/m2 FEW
22:38 -25.7 °C -26.7 °C 35461.6 hPa Calm     85% 0 mm WeatherDisplay:10.37 W/m2 FEW
22:43 -25.7 °C -26.8 °C 35461.6 hPa Calm     85% 0 mm WeatherDisplay:10.37 W/m2 FEW
22:48 -25.7 °C -26.8 °C 35461.6 hPa Calm     85% 0 mm WeatherDisplay:10.37 W/m2 FEW
22:53 -25.7 °C -26.8 °C 35461.6 hPa Calm     85% 0 mm WeatherDisplay:10.37 W/m2 FEW
22:58 -25.8 °C -26.8 °C 35461.6 hPa Calm     85% 0 mm WeatherDisplay:10.37 W/m2 FEW
23:03 -25.8 °C -26.9 °C 35461.6 hPa Calm     85% 0 mm WeatherDisplay:10.37 W/m2 FEW
23:08 -25.9 °C -26.9 °C 35461.6 hPa Calm   6 km/h 85% 0 mm WeatherDisplay:10.37 W/m2 FEW
23:13 -25.9 °C -26.9 °C 35461.6 hPa Calm     86% 0 mm WeatherDisplay:10.37 W/m2 FEW
23:18 -25.9 °C -26.9 °C 35461.6 hPa Calm     86% 0 mm WeatherDisplay:10.37 W/m2 FEW
23:23 -25.9 °C -26.9 °C 35461.6 hPa Calm     86% 0 mm WeatherDisplay:10.37 W/m2 FEW
23:28 -25.9 °C -26.9 °C 35461.6 hPa Calm     86% 0 mm WeatherDisplay:10.37 W/m2 FEW
23:33 -25.9 °C -26.9 °C 35471.7 hPa Calm     86% 0 mm WeatherDisplay:10.37 W/m2 FEW
23:38 -25.9 °C -26.8 °C 35471.7 hPa Calm     87% 0 mm WeatherDisplay:10.37 W/m2 FEW
23:43 -25.9 °C -26.8 °C 35471.7 hPa Calm     87% 0 mm WeatherDisplay:10.37 W/m2 FEW
23:48 -25.8 °C -26.8 °C 35471.7 hPa Calm     87% 0 mm WeatherDisplay:10.37 W/m2 FEW
23:53 -25.8 °C -26.7 °C 35471.7 hPa Calm     87% 0 mm WeatherDisplay:10.37 W/m2 FEW
23:58 -25.8 °C -26.7 °C 35471.7 hPa Calm     87% 0 mm WeatherDisplay:10.37 W/m2 FEW
Tuulensuunkaari, Veikkola, Suomi
Compliments of Weather Underground - 2.75 mb